StationID,Date,MaxTemp,MinTemp,Precipitation,Snowfall,SnowDepth
"CA007027322","2005-01-01",44.24,8.96,0.00,0.00,100.00
"CA007027322","2005-01-02",32.36,2.48,140.00,20.00,50.00
"CA007027322","2005-01-03",33.62,20.48,0.00,0.00,50.00
"CA007027322","2005-01-04",27.14,17.78,0.00,0.00,50.00
"CA007027322","2005-01-05",22.82,5.72,0.00,0.00,50.00
"CA007027322","2005-01-06",21.92,3.74,146.00,143.00,50.00
"CA007027322","2005-01-07",23.90,15.62,6.00,6.00,210.00
"CA007027322","2005-01-08",28.40,10.22,0.00,0.00,210.00
"CA007027322","2005-01-09",18.14,8.96,0.00,0.00,210.00
"CA007027322","2005-01-10",37.40,16.88,34.00,32.00,210.00
"CA007027322","2005-01-11",18.14,1.94,0.00,0.00,210.00
"CA007027322","2005-01-12",36.50,4.82,56.00,10.00,210.00
"CA007027322","2005-01-13",50.90,35.78,14.00,0.00,170.00
"CA007027322","2005-01-14",50.00,15.26,128.00,6.00,0.00
"CA007027322","2005-01-15",22.28,11.12,0.00,0.00,0.00
"CA007027322","2005-01-16",18.86,9.50,2.00,2.00,0.00
"CA007027322","2005-01-17",10.04,-3.10,9.00,9.00,0.00
"CA007027322","2005-01-18",-3.10,-10.48,0.00,0.00,0.00
"CA007027322","2005-01-19",16.16,-8.14,36.00,36.00,0.00
"CA007027322","2005-01-20",9.14,-9.40,6.00,6.00,40.00
"CA007027322","2005-01-21",-6.70,-16.96,0.00,0.00,40.00
"CA007027322","2005-01-22",0.50,-18.04,22.00,22.00,40.00
"CA007027322","2005-01-23",2.84,-7.60,4.00,4.00,50.00
"CA007027322","2005-01-24",16.16,-6.16,16.00,34.00,50.00
"CA007027322","2005-01-25",13.82,-2.38,2.00,2.00,60.00
"CA007027322","2005-01-26",4.64,-7.24,14.00,14.00,70.00
"CA007027322","2005-01-27",5.18,-12.28,0.00,0.00,50.00
"CA007027322","2005-01-28",8.78,-14.44,0.00,0.00,50.00
"CA007027322","2005-01-29",20.84,0.14,0.00,0.00,40.00
"CA007027322","2005-01-30",28.22,5.54,0.00,0.00,40.00
"CA007027322","2005-01-31",18.68,0.32,0.00,0.00,40.00
"CA007027322","2005-02-01",26.96,0.50,0.00,0.00,30.00
"CA007027322","2005-02-02",29.48,9.68,0.00,0.00,30.00
"CA007027322","2005-02-03",33.98,5.54,0.00,0.00,20.00
"CA007027322","2005-02-04",38.84,10.76,0.00,0.00,10.00
"CA007027322","2005-02-05",40.64,12.02,0.00,0.00,10.00
"CA007027322","2005-02-06",37.76,15.62,0.00,0.00,10.00
"CA007027322","2005-02-07",42.80,23.72,0.00,0.00,10.00
"CA007027322","2005-02-08",37.40,33.44,36.00,0.00,0.00
"CA007027322","2005-02-09",35.96,24.26,8.00,4.00,0.00
"CA007027322","2005-02-10",24.26,17.06,114.00,114.00,20.00
"CA007027322","2005-02-11",34.52,11.84,0.00,0.00,70.00
"CA007027322","2005-02-12",32.72,18.14,19.00,40.00,80.00
"CA007027322","2005-02-13",26.42,3.74,0.00,0.00,70.00
"CA007027322","2005-02-14",36.50,-1.66,66.00,34.00,70.00
"CA007027322","2005-02-15",39.02,35.42,18.00,0.00,70.00
"CA007027322","2005-02-16",36.68,19.58,126.00,63.00,10.00
"CA007027322","2005-02-17",22.28,8.24,0.00,0.00,60.00
"CA007027322","2005-02-18",17.96,4.28,16.00,16.00,70.00
"CA007027322","2005-02-19",22.46,0.86,6.00,6.00,90.00
"CA007027322","2005-02-20",10.94,-1.84,0.00,0.00,100.00
"CA007027322","2005-02-21",26.24,4.28,107.00,110.00,110.00
"CA007027322","2005-02-22",26.96,14.36,6.00,6.00,220.00
"CA007027322","2005-02-23",21.56,-5.98,0.00,0.00,210.00
"CA007027322","2005-02-24",13.64,-11.02,0.00,0.00,210.00
"CA007027322","2005-02-25",19.22,-2.38,0.00,0.00,190.00
"CA007027322","2005-02-26",26.96,-6.16,0.00,0.00,190.00
"CA007027322","2005-02-27",22.64,7.52,0.00,0.00,190.00
"CA007027322","2005-02-28",21.38,1.94,0.00,0.00,190.00
"CA007027322","2005-03-01",25.52,19.40,110.00,116.00,180.00
"CA007027322","2005-03-02",29.48,15.44,4.00,4.00,300.00
"CA007027322","2005-03-03",18.14,6.26,0.00,0.00,280.00
"CA007027322","2005-03-04",26.60,6.26,0.00,0.00,260.00
"CA007027322","2005-03-05",33.08,9.14,0.00,0.00,260.00
"CA007027322","2005-03-06",36.14,13.46,10.00,8.00,240.00
"CA007027322","2005-03-07",18.68,1.40,100.00,76.00,250.00
"CA007027322","2005-03-08",19.40,7.70,2.00,2.00,340.00
"CA007027322","2005-03-09",14.72,1.04,0.00,0.00,320.00
"CA007027322","2005-03-10",19.22,1.94,0.00,0.00,320.00
"CA007027322","2005-03-11",29.84,6.44,28.00,28.00,300.00
"CA007027322","2005-03-12",29.12,24.26,60.00,56.00,330.00
"CA007027322","2005-03-13",33.98,24.08,0.00,0.00,360.00
"CA007027322","2005-03-14",36.68,16.16,0.00,0.00,340.00
"CA007027322","2005-03-15",35.24,26.78,6.00,6.00,310.00
"CA007027322","2005-03-16",29.66,24.44,10.00,10.00,300.00
"CA007027322","2005-03-17",31.10,13.64,0.00,0.00,290.00
"CA007027322","2005-03-18",34.34,8.60,0.00,0.00,280.00
"CA007027322","2005-03-19",36.50,16.88,0.00,0.00,280.00
"CA007027322","2005-03-20",40.64,14.54,0.00,0.00,260.00
"CA007027322","2005-03-21",42.26,14.72,0.00,0.00,240.00
"CA007027322","2005-03-22",41.00,23.54,0.00,0.00,180.00
"CA007027322","2005-03-23",32.72,21.02,0.00,0.00,160.00
"CA007027322","2005-03-24",42.44,23.36,0.00,0.00,0.00
"CA007027322","2005-03-25",37.76,20.12,0.00,0.00,0.00
"CA007027322","2005-03-26",36.86,15.98,0.00,0.00,0.00
"CA007027322","2005-03-27",48.38,19.58,0.00,0.00,0.00
"CA007027322","2005-03-28",40.10,30.38,57.00,0.00,0.00
"CA007027322","2005-03-29",50.00,31.82,0.00,0.00,0.00
"CA007027322","2005-03-30",48.20,27.68,0.00,0.00,0.00
"CA007027322","2005-03-31",61.16,31.46,118.00,0.00,0.00
"CA007027322","2005-04-01",46.58,36.68,20.00,0.00,0.00
"CA007027322","2005-04-02",40.82,33.44,220.00,0.00,0.00
"CA007027322","2005-04-03",55.58,37.94,55.00,0.00,0.00
"CA007027322","2005-04-04",44.06,36.14,10.00,0.00,0.00
"CA007027322","2005-04-05",56.48,33.62,0.00,0.00,0.00
"CA007027322","2005-04-06",62.06,33.62,0.00,0.00,0.00
"CA007027322","2005-04-07",48.92,33.98,110.00,0.00,0.00
"CA007027322","2005-04-08",54.50,29.12,0.00,0.00,0.00
"CA007027322","2005-04-09",53.42,26.96,0.00,0.00,0.00
"CA007027322","2005-04-10",53.24,28.94,0.00,0.00,0.00
"CA007027322","2005-04-11",47.12,25.52,0.00,0.00,0.00
"CA007027322","2005-04-12",53.06,23.36,0.00,0.00,0.00
"CA007027322","2005-04-13",51.98,32.54,0.00,0.00,0.00
"CA007027322","2005-04-14",50.72,29.12,0.00,0.00,0.00
"CA007027322","2005-04-15",55.22,24.80,0.00,0.00,0.00
"CA007027322","2005-04-16",66.92,25.70,0.00,0.00,0.00
"CA007027322","2005-04-17",72.68,40.46,0.00,0.00,0.00
"CA007027322","2005-04-18",64.94,34.34,0.00,0.00,0.00
"CA007027322","2005-04-19",74.48,33.44,0.00,0.00,0.00
"CA007027322","2005-04-20",59.18,35.60,140.00,0.00,0.00
"CA007027322","2005-04-21",51.44,28.04,0.00,0.00,0.00
"CA007027322","2005-04-22",57.92,24.44,0.00,0.00,0.00
"CA007027322","2005-04-23",48.20,41.18,270.00,0.00,0.00
"CA007027322","2005-04-24",62.42,41.54,20.00,0.00,0.00
"CA007027322","2005-04-25",49.64,39.74,70.00,0.00,0.00
"CA007027322","2005-04-26",63.86,41.54,5.00,0.00,0.00
"CA007027322","2005-04-27",56.12,47.30,220.00,0.00,0.00
"CA007027322","2005-04-28",52.52,42.44,45.00,0.00,0.00
"CA007027322","2005-04-29",55.58,35.42,40.00,0.00,0.00
"CA007027322","2005-04-30",57.56,36.50,145.00,0.00,0.00
"CA007027322","2005-05-01",55.94,40.64,10.00,0.00,0.00
"CA007027322","2005-05-02",52.16,38.12,20.00,0.00,0.00
"CA007027322","2005-05-03",52.52,38.84,0.00,0.00,0.00
"CA007027322","2005-05-04",52.52,40.10,0.00,0.00,0.00
"CA007027322","2005-05-05",59.18,37.94,0.00,0.00,0.00
"CA007027322","2005-05-06",67.82,34.88,0.00,0.00,0.00
"CA007027322","2005-05-07",62.60,41.18,0.00,0.00,0.00
"CA007027322","2005-05-08",60.44,40.28,0.00,0.00,0.00
"CA007027322","2005-05-09",67.64,42.44,0.00,0.00,0.00
"CA007027322","2005-05-10",80.96,46.94,0.00,0.00,0.00
"CA007027322","2005-05-11",80.60,43.16,5.00,0.00,0.00
"CA007027322","2005-05-12",50.90,33.26,0.00,0.00,0.00
"CA007027322","2005-05-13",58.28,29.30,0.00,0.00,0.00
"CA007027322","2005-05-14",50.72,45.32,15.00,0.00,0.00
"CA007027322","2005-05-15",61.16,45.50,80.00,0.00,0.00
"CA007027322","2005-05-16",63.50,48.56,50.00,0.00,0.00
"CA007027322","2005-05-17",58.82,44.96,0.00,0.00,0.00
"CA007027322","2005-05-18",59.36,39.92,0.00,0.00,0.00
"CA007027322","2005-05-19",63.50,34.70,0.00,0.00,0.00
"CA007027322","2005-05-20",66.56,39.92,0.00,0.00,0.00
"CA007027322","2005-05-21",54.50,45.68,0.00,0.00,0.00
"CA007027322","2005-05-22",51.44,45.32,35.00,0.00,0.00
"CA007027322","2005-05-23",55.22,46.22,40.00,0.00,0.00
"CA007027322","2005-05-24",66.02,43.16,0.00,0.00,0.00
"CA007027322","2005-05-25",71.60,42.98,0.00,0.00,0.00
"CA007027322","2005-05-26",55.94,45.32,10.00,0.00,0.00
"CA007027322","2005-05-27",55.40,49.46,180.00,0.00,0.00
"CA007027322","2005-05-28",71.06,50.18,10.00,0.00,0.00
"CA007027322","2005-05-29",71.42,44.24,0.00,0.00,0.00
"CA007027322","2005-05-30",69.62,55.22,0.00,0.00,0.00
"CA007027322","2005-05-31",72.68,51.26,0.00,0.00,0.00
"CA007027322","2005-06-01",78.44,48.20,0.00,0.00,0.00
"CA007027322","2005-06-02",82.22,51.44,0.00,0.00,0.00
"CA007027322","2005-06-03",82.76,56.84,0.00,0.00,0.00
"CA007027322","2005-06-04",85.28,62.96,0.00,0.00,0.00
"CA007027322","2005-06-05",82.76,60.44,0.00,0.00,0.00
"CA007027322","2005-06-06",86.54,55.76,15.00,0.00,0.00
"CA007027322","2005-06-07",81.86,59.54,0.00,0.00,0.00
"CA007027322","2005-06-08",64.04,50.54,0.00,0.00,0.00
"CA007027322","2005-06-09",85.64,50.54,0.00,0.00,0.00
"CA007027322","2005-06-10",86.54,67.64,0.00,0.00,0.00
"CA007027322","2005-06-11",90.14,68.72,0.00,0.00,0.00
"CA007027322","2005-06-12",89.78,68.90,0.00,0.00,0.00
"CA007027322","2005-06-13",88.16,72.50,0.00,0.00,0.00
"CA007027322","2005-06-14",75.38,60.98,330.00,0.00,0.00
"CA007027322","2005-06-15",67.28,59.18,255.00,0.00,0.00
"CA007027322","2005-06-16",68.00,57.74,65.00,0.00,0.00
"CA007027322","2005-06-17",61.70,51.44,275.00,0.00,0.00
"CA007027322","2005-06-18",60.62,48.20,5.00,0.00,0.00
"CA007027322","2005-06-19",71.42,45.14,0.00,0.00,0.00
"CA007027322","2005-06-20",75.92,51.98,0.00,0.00,0.00
"CA007027322","2005-06-21",81.14,61.88,45.00,0.00,0.00
"CA007027322","2005-06-22",70.88,49.10,0.00,0.00,0.00
"CA007027322","2005-06-23",71.42,43.88,5.00,0.00,0.00
"CA007027322","2005-06-24",85.82,57.38,0.00,0.00,0.00
"CA007027322","2005-06-25",89.42,67.10,0.00,0.00,0.00
"CA007027322","2005-06-26",84.38,63.32,0.00,0.00,0.00
"CA007027322","2005-06-27",90.14,60.80,0.00,0.00,0.00
"CA007027322","2005-06-28",89.60,72.14,0.00,0.00,0.00
"CA007027322","2005-06-29",83.30,67.28,100.00,0.00,0.00
"CA007027322","2005-06-30",84.02,65.30,0.00,0.00,0.00
"CA007027322","2005-07-01",83.48,68.18,85.00,0.00,0.00
"CA007027322","2005-07-02",73.04,58.46,0.00,0.00,0.00
"CA007027322","2005-07-03",79.70,54.86,0.00,0.00,0.00
"CA007027322","2005-07-04",84.02,61.34,0.00,0.00,0.00
"CA007027322","2005-07-05",80.78,64.58,265.00,0.00,0.00
"CA007027322","2005-07-06",72.68,54.68,0.00,0.00,0.00
"CA007027322","2005-07-07",76.28,52.70,0.00,0.00,0.00
"CA007027322","2005-07-08",77.18,56.84,0.00,0.00,0.00
"CA007027322","2005-07-09",66.38,59.18,305.00,0.00,0.00
"CA007027322","2005-07-10",89.06,59.90,115.00,0.00,0.00
"CA007027322","2005-07-11",88.70,64.58,0.00,0.00,0.00
"CA007027322","2005-07-12",87.26,61.52,0.00,0.00,0.00
"CA007027322","2005-07-13",81.68,60.26,0.00,0.00,0.00
"CA007027322","2005-07-14",85.46,63.32,0.00,0.00,0.00
"CA007027322","2005-07-15",82.22,57.92,0.00,0.00,0.00
"CA007027322","2005-07-16",86.00,54.14,0.00,0.00,0.00
"CA007027322","2005-07-17",82.22,73.58,160.00,0.00,0.00
"CA007027322","2005-07-18",88.16,75.56,0.00,0.00,0.00
"CA007027322","2005-07-19",87.26,69.80,40.00,0.00,0.00
"CA007027322","2005-07-20",81.50,65.12,0.00,0.00,0.00
"CA007027322","2005-07-21",85.10,65.84,0.00,0.00,0.00
"CA007027322","2005-07-22",78.80,57.38,50.00,0.00,0.00
"CA007027322","2005-07-23",79.34,54.32,5.00,0.00,0.00
"CA007027322","2005-07-24",77.00,49.28,0.00,0.00,0.00
"CA007027322","2005-07-25",86.36,66.38,75.00,0.00,0.00
"CA007027322","2005-07-26",79.52,60.98,45.00,0.00,0.00
"CA007027322","2005-07-27",70.52,54.50,15.00,0.00,0.00
"CA007027322","2005-07-28",74.30,47.12,0.00,0.00,0.00
"CA007027322","2005-07-29",78.44,52.70,0.00,0.00,0.00
"CA007027322","2005-07-30",76.46,46.76,0.00,0.00,0.00
"CA007027322","2005-07-31",77.54,48.74,0.00,0.00,0.00
"CA007027322","2005-08-01",82.76,60.80,5.00,0.00,0.00
"CA007027322","2005-08-02",89.06,63.68,0.00,0.00,0.00
"CA007027322","2005-08-03",83.66,61.16,0.00,0.00,0.00
"CA007027322","2005-08-04",89.06,61.52,105.00,0.00,0.00
"CA007027322","2005-08-05",85.46,59.18,55.00,0.00,0.00
"CA007027322","2005-08-06",79.16,52.16,0.00,0.00,0.00
"CA007027322","2005-08-07",84.02,57.56,0.00,0.00,0.00
"CA007027322","2005-08-08",87.80,63.14,0.00,0.00,0.00
"CA007027322","2005-08-09",88.70,62.06,0.00,0.00,0.00
"CA007027322","2005-08-10",85.28,67.64,150.00,0.00,0.00
"CA007027322","2005-08-11",83.30,61.34,0.00,0.00,0.00
"CA007027322","2005-08-12",80.78,59.18,5.00,0.00,0.00
"CA007027322","2005-08-13",83.48,66.20,10.00,0.00,0.00
"CA007027322","2005-08-14",73.94,60.98,0.00,0.00,0.00
"CA007027322","2005-08-15",80.78,54.68,0.00,0.00,0.00
"CA007027322","2005-08-16",82.76,59.90,0.00,0.00,0.00
"CA007027322","2005-08-17",74.66,50.36,0.00,0.00,0.00
"CA007027322","2005-08-18",69.08,44.42,0.00,0.00,0.00
"CA007027322","2005-08-19",74.48,52.70,35.00,0.00,0.00
"CA007027322","2005-08-20",71.24,63.32,85.00,0.00,0.00
"CA007027322","2005-08-21",82.22,60.08,25.00,0.00,0.00
"CA007027322","2005-08-22",74.84,58.82,10.00,0.00,0.00
"CA007027322","2005-08-23",71.06,54.68,0.00,0.00,0.00
"CA007027322","2005-08-24",71.24,51.98,0.00,0.00,0.00
"CA007027322","2005-08-25",82.04,49.64,0.00,0.00,0.00
"CA007027322","2005-08-26",82.76,51.62,25.00,0.00,0.00
"CA007027322","2005-08-27",83.66,54.32,0.00,0.00,0.00
"CA007027322","2005-08-28",79.16,65.66,165.00,0.00,0.00
"CA007027322","2005-08-29",81.50,59.54,0.00,0.00,0.00
"CA007027322","2005-08-30",82.40,66.02,0.00,0.00,0.00
"CA007027322","2005-08-31",70.16,64.22,1035.00,0.00,0.00
"CA007027322","2005-09-01",76.46,63.86,0.00,0.00,0.00
"CA007027322","2005-09-02",80.42,61.34,20.00,0.00,0.00
"CA007027322","2005-09-03",75.56,57.56,55.00,0.00,0.00
"CA007027322","2005-09-04",71.96,51.62,0.00,0.00,0.00
"CA007027322","2005-09-05",73.40,45.68,0.00,0.00,0.00
"CA007027322","2005-09-06",77.18,48.20,0.00,0.00,0.00
"CA007027322","2005-09-07",79.52,54.86,0.00,0.00,0.00
"CA007027322","2005-09-08",69.26,50.36,270.00,0.00,0.00
"CA007027322","2005-09-09",69.44,44.06,0.00,0.00,0.00
"CA007027322","2005-09-10",65.84,41.18,0.00,0.00,0.00
"CA007027322","2005-09-11",72.32,42.44,0.00,0.00,0.00
"CA007027322","2005-09-12",84.02,66.02,0.00,0.00,0.00
"CA007027322","2005-09-13",84.92,63.86,0.00,0.00,0.00
"CA007027322","2005-09-14",84.92,62.60,0.00,0.00,0.00
"CA007027322","2005-09-15",73.94,58.46,5.00,0.00,0.00
"CA007027322","2005-09-16",66.74,57.38,210.00,0.00,0.00
"CA007027322","2005-09-17",65.12,57.56,480.00,0.00,0.00
"CA007027322","2005-09-18",68.36,57.56,5.00,0.00,0.00
"CA007027322","2005-09-19",73.94,56.12,0.00,0.00,0.00
"CA007027322","2005-09-20",77.54,58.82,10.00,0.00,0.00
"CA007027322","2005-09-21",74.48,53.42,0.00,0.00,0.00
"CA007027322","2005-09-22",78.98,53.42,5.00,0.00,0.00
"CA007027322","2005-09-23",68.36,46.58,20.00,0.00,0.00
"CA007027322","2005-09-24",61.70,36.68,0.00,0.00,0.00
"CA007027322","2005-09-25",64.22,44.96,5.00,0.00,0.00
"CA007027322","2005-09-26",66.38,54.86,415.00,0.00,0.00
"CA007027322","2005-09-27",65.66,49.28,5.00,0.00,0.00
"CA007027322","2005-09-28",71.24,48.56,0.00,0.00,0.00
"CA007027322","2005-09-29",66.38,42.44,95.00,0.00,0.00
"CA007027322","2005-09-30",56.84,41.36,0.00,0.00,0.00
"CA007027322","2005-10-01",73.58,43.70,0.00,0.00,0.00
"CA007027322","2005-10-02",77.00,48.02,0.00,0.00,0.00
"CA007027322","2005-10-03",79.34,48.02,0.00,0.00,0.00
"CA007027322","2005-10-04",80.06,59.36,0.00,0.00,0.00
"CA007027322","2005-10-05",79.70,57.38,0.00,0.00,0.00
"CA007027322","2005-10-06",78.62,54.50,0.00,0.00,0.00
"CA007027322","2005-10-07",66.92,42.80,600.00,0.00,0.00
"CA007027322","2005-10-08",51.08,42.26,40.00,0.00,0.00
"CA007027322","2005-10-09",50.90,44.78,0.00,0.00,0.00
"CA007027322","2005-10-10",54.14,46.94,0.00,0.00,0.00
"CA007027322","2005-10-11",56.12,44.06,0.00,0.00,0.00
"CA007027322","2005-10-12",55.22,41.36,0.00,0.00,0.00
"CA007027322","2005-10-13",52.34,47.30,168.00,0.00,0.00
"CA007027322","2005-10-14",57.56,50.54,295.00,0.00,0.00
"CA007027322","2005-10-15",57.02,51.26,60.00,0.00,0.00
"CA007027322","2005-10-16",54.32,49.10,100.00,0.00,0.00
"CA007027322","2005-10-17",52.88,42.44,10.00,0.00,0.00
"CA007027322","2005-10-18",49.28,40.28,15.00,0.00,0.00
"CA007027322","2005-10-19",52.34,41.00,85.00,0.00,0.00
"CA007027322","2005-10-20",51.26,33.08,0.00,0.00,0.00
"CA007027322","2005-10-21",49.28,28.40,0.00,0.00,0.00
"CA007027322","2005-10-22",48.92,26.96,5.00,0.00,0.00
"CA007027322","2005-10-23",47.84,40.64,60.00,0.00,0.00
"CA007027322","2005-10-24",48.20,39.92,5.00,0.00,0.00
"CA007027322","2005-10-25",44.06,33.62,170.00,0.00,0.00
"CA007027322","2005-10-26",43.88,33.44,40.00,0.00,0.00
"CA007027322","2005-10-27",41.18,36.32,0.00,0.00,0.00
"CA007027322","2005-10-28",41.72,30.92,0.00,0.00,0.00
"CA007027322","2005-10-29",47.66,24.62,0.00,0.00,0.00
"CA007027322","2005-10-30",56.30,38.12,0.00,0.00,0.00
"CA007027322","2005-10-31",61.70,48.56,0.00,0.00,0.00
"CA007027322","2005-11-01",66.20,47.30,14.00,0.00,0.00
"CA007027322","2005-11-02",47.48,33.98,0.00,0.00,0.00
"CA007027322","2005-11-03",59.72,36.50,8.00,0.00,0.00
"CA007027322","2005-11-04",39.20,32.00,0.00,0.00,0.00
"CA007027322","2005-11-05",45.68,29.30,6.00,0.00,0.00
"CA007027322","2005-11-06",57.38,37.40,68.00,0.00,0.00
"CA007027322","2005-11-07",50.00,42.98,20.00,0.00,0.00
"CA007027322","2005-11-08",45.14,26.06,0.00,0.00,0.00
"CA007027322","2005-11-09",46.40,21.56,208.00,0.00,0.00
"CA007027322","2005-11-10",45.14,30.74,4.00,0.00,0.00
"CA007027322","2005-11-11",37.40,21.56,0.00,0.00,0.00
"CA007027322","2005-11-12",44.24,20.12,0.00,0.00,0.00
"CA007027322","2005-11-13",56.84,41.54,0.00,0.00,0.00
"CA007027322","2005-11-14",58.82,28.40,0.00,0.00,0.00
"CA007027322","2005-11-15",36.50,27.68,196.00,40.00,0.00
"CA007027322","2005-11-16",65.84,36.14,42.00,0.00,0.00
"CA007027322","2005-11-17",42.26,31.10,4.00,2.00,0.00
"CA007027322","2005-11-18",31.46,17.06,2.00,2.00,0.00
"CA007027322","2005-11-19",36.50,22.10,2.00,2.00,0.00
"CA007027322","2005-11-20",44.24,34.34,0.00,0.00,0.00
"CA007027322","2005-11-21",47.48,33.62,0.00,0.00,0.00
"CA007027322","2005-11-22",39.74,26.60,42.00,16.00,0.00
"CA007027322","2005-11-23",26.78,13.46,0.00,0.00,10.00
"CA007027322","2005-11-24",25.88,12.74,74.00,74.00,10.00
"CA007027322","2005-11-25",23.90,4.64,4.00,6.00,50.00
"CA007027322","2005-11-26",24.26,5.54,16.00,16.00,30.00
"CA007027322","2005-11-27",28.94,20.12,22.00,6.00,40.00
"CA007027322","2005-11-28",52.52,28.76,60.00,0.00,30.00
"CA007027322","2005-11-29",64.22,49.46,132.00,0.00,0.00
"CA007027322","2005-11-30",51.44,38.12,50.00,0.00,0.00
"CA007027322","2005-12-01",40.10,32.36,0.00,0.00,0.00
"CA007027322","2005-12-02",36.86,23.00,26.00,16.00,0.00
"CA007027322","2005-12-03",26.60,19.94,2.00,2.00,0.00
"CA007027322","2005-12-04",29.12,21.56,14.00,14.00,0.00
"CA007027322","2005-12-05",33.62,21.92,0.00,0.00,10.00
"CA007027322","2005-12-06",30.38,19.04,0.00,0.00,10.00
"CA007027322","2005-12-07",22.82,12.56,0.00,0.00,10.00
"CA007027322","2005-12-08",23.18,10.40,0.00,0.00,0.00
"CA007027322","2005-12-09",27.32,12.56,50.00,76.00,0.00
"CA007027322","2005-12-10",32.54,23.90,0.00,0.00,80.00
"CA007027322","2005-12-11",31.10,24.26,24.00,24.00,70.00
"CA007027322","2005-12-12",27.14,0.14,8.00,8.00,90.00
"CA007027322","2005-12-13",14.72,-6.88,0.00,0.00,90.00
"CA007027322","2005-12-14",12.56,-9.40,0.00,0.00,90.00
"CA007027322","2005-12-15",14.54,-11.38,0.00,0.00,60.00
"CA007027322","2005-12-16",28.04,14.18,372.00,388.00,150.00
"CA007027322","2005-12-17",31.82,20.12,0.00,0.00,280.00
"CA007027322","2005-12-18",28.76,22.82,0.00,0.00,260.00
"CA007027322","2005-12-19",25.88,19.04,6.00,10.00,260.00
"CA007027322","2005-12-20",25.88,-0.22,10.00,22.00,200.00
"CA007027322","2005-12-21",19.94,-5.80,14.00,14.00,200.00
"CA007027322","2005-12-22",32.72,2.48,2.00,2.00,200.00
"CA007027322","2005-12-23",36.14,31.28,86.00,80.00,200.00
"CA007027322","2005-12-24",36.50,32.72,14.00,2.00,200.00
"CA007027322","2005-12-25",34.16,31.28,160.00,4.00,160.00
"CA007027322","2005-12-26",32.90,22.82,32.00,12.00,110.00
"CA007027322","2005-12-27",24.62,12.56,0.00,0.00,110.00
"CA007027322","2005-12-28",28.94,24.26,12.00,0.00,110.00
"CA007027322","2005-12-29",32.00,27.32,103.00,42.00,100.00
"CA007027322","2005-12-30",27.50,2.12,8.00,8.00,130.00
"CA007027322","2005-12-31",11.30,-3.46,0.00,0.00,130.00
"CA007027322","2006-01-01",17.78,10.94,2.00,6.00,130.00
"CA007027322","2006-01-02",24.62,15.98,0.00,0.00,130.00
"CA007027322","2006-01-03",19.22,8.06,0.00,0.00,130.00
"CA007027322","2006-01-04",31.82,7.88,20.00,20.00,130.00
"CA007027322","2006-01-05",33.08,25.52,60.00,60.00,170.00
"CA007027322","2006-01-06",28.22,9.32,0.00,0.00,220.00
"CA007027322","2006-01-07",12.92,2.48,2.00,2.00,220.00
"CA007027322","2006-01-08",19.04,10.58,4.00,4.00,220.00
"CA007027322","2006-01-09",30.92,18.68,76.00,78.00,230.00
"CA007027322","2006-01-10",31.28,20.12,0.00,0.00,280.00
"CA007027322","2006-01-11",39.20,19.04,49.00,0.00,280.00
"CA007027322","2006-01-12",38.48,32.18,16.00,0.00,220.00
"CA007027322","2006-01-13",45.32,29.48,0.00,0.00,170.00
"CA007027322","2006-01-14",44.06,19.76,194.00,46.00,110.00
"CA007027322","2006-01-15",19.94,2.66,0.00,0.00,120.00
"CA007027322","2006-01-16",16.34,0.14,0.00,0.00,120.00
"CA007027322","2006-01-17",34.52,3.20,86.00,2.00,120.00
"CA007027322","2006-01-18",40.28,30.38,605.00,12.00,100.00
"CA007027322","2006-01-19",33.26,29.12,2.00,2.00,50.00
"CA007027322","2006-01-20",42.26,30.20,4.00,0.00,50.00
"CA007027322","2006-01-21",36.50,16.16,154.00,32.00,30.00
"CA007027322","2006-01-22",21.92,7.70,0.00,0.00,60.00
"CA007027322","2006-01-23",27.68,16.16,0.00,0.00,60.00
"CA007027322","2006-01-24",34.52,27.32,24.00,24.00,60.00
"CA007027322","2006-01-25",33.62,27.50,22.00,22.00,90.00
"CA007027322","2006-01-26",27.86,8.78,22.00,22.00,110.00
"CA007027322","2006-01-27",32.36,8.06,0.00,0.00,110.00
"CA007027322","2006-01-28",41.72,26.60,0.00,0.00,110.00
"CA007027322","2006-01-29",29.66,19.04,72.00,72.00,90.00
"CA007027322","2006-01-30",26.24,20.66,40.00,34.00,190.00
"CA007027322","2006-01-31",33.44,25.16,40.00,36.00,200.00
"CA007027322","2006-02-01",29.84,24.08,0.00,0.00,230.00
"CA007027322","2006-02-02",37.76,22.82,0.00,0.00,230.00
"CA007027322","2006-02-03",41.90,28.22,190.00,0.00,190.00
"CA007027322","2006-02-04",38.12,34.34,26.00,0.00,160.00
"CA007027322","2006-02-05",38.84,30.02,122.00,0.00,90.00
"CA007027322","2006-02-06",30.02,17.24,8.00,8.00,80.00
"CA007027322","2006-02-07",20.48,15.08,0.00,0.00,80.00
"CA007027322","2006-02-08",19.76,12.56,0.00,0.00,80.00
"CA007027322","2006-02-09",13.64,4.82,4.00,4.00,80.00
"CA007027322","2006-02-10",12.20,0.14,0.00,0.00,80.00
"CA007027322","2006-02-11",19.22,1.94,0.00,0.00,80.00
"CA007027322","2006-02-12",17.60,4.46,0.00,0.00,80.00
"CA007027322","2006-02-13",26.06,10.58,2.00,2.00,80.00
"CA007027322","2006-02-14",31.46,22.46,26.00,36.00,80.00
"CA007027322","2006-02-15",44.06,31.46,28.00,28.00,120.00
"CA007027322","2006-02-16",34.16,14.00,72.00,68.00,80.00
"CA007027322","2006-02-17",42.26,6.26,114.00,0.00,100.00
"CA007027322","2006-02-18",6.26,-0.94,0.00,0.00,100.00
"CA007027322","2006-02-19",22.28,2.48,0.00,0.00,100.00
"CA007027322","2006-02-20",26.96,16.34,0.00,0.00,100.00
"CA007027322","2006-02-21",28.76,14.00,8.00,8.00,100.00
"CA007027322","2006-02-22",31.28,17.96,14.00,26.00,100.00
"CA007027322","2006-02-23",32.72,25.16,28.00,48.00,140.00
"CA007027322","2006-02-24",31.10,2.84,36.00,44.00,180.00
"CA007027322","2006-02-25",13.46,0.68,18.00,18.00,200.00
"CA007027322","2006-02-26",14.36,1.76,0.00,0.00,210.00
"CA007027322","2006-02-27",12.20,-0.22,0.00,0.00,200.00
"CA007027322","2006-02-28",16.16,6.08,0.00,0.00,180.00
"CA007027322","2006-03-01",22.28,2.12,0.00,0.00,180.00
"CA007027322","2006-03-02",25.88,14.54,44.00,90.00,230.00